Time,TemperatureF,DewpointF,PressureIn,WindDirection,WindDirectionDegrees,WindSpeedMPH,WindSpeedGustMPH,Humidity,HourlyPrecipIn,Conditions,Clouds,dailyrainin,SoftwareType,DateUTC
2013-08-02 00:00:00,81.0,76.0,30.00,SSW,200,15.0,16.0,85,-99.99,,,-99.99,,2013-08-02 04:00:00,
2013-08-02 00:33:00,81.0,76.0,30.00,SSW,200,15.0,16.0,85,-99.99,,,-99.99,,2013-08-02 04:33:00,
2013-08-02 00:43:00,81.0,76.0,30.00,SSW,200,15.0,16.0,85,-99.99,,,-99.99,,2013-08-02 04:43:00,
2013-08-02 00:53:00,81.0,76.0,30.00,SSW,200,15.0,16.0,85,-99.99,,,-99.99,,2013-08-02 04:53:00,
2013-08-02 01:00:00,81.0,76.0,29.99,SW,220,12.0,14.0,85,-99.99,,,-99.99,,2013-08-02 05:00:00,
2013-08-02 01:32:00,81.0,76.0,29.99,SW,220,12.0,14.0,85,-99.99,,,-99.99,,2013-08-02 05:32:00,
2013-08-02 01:43:00,81.0,76.0,29.99,SW,220,12.0,14.0,85,-99.99,,,-99.99,,2013-08-02 05:43:00,
2013-08-02 01:53:00,81.0,76.0,29.99,SW,220,12.0,14.0,85,-99.99,,,-99.99,,2013-08-02 05:53:00,
2013-08-02 02:00:00,80.0,74.0,29.97,SW,230,10.0,13.0,82,-99.99,,,-99.99,,2013-08-02 06:00:00,
2013-08-02 02:33:00,80.0,74.0,29.97,SW,230,10.0,13.0,82,-99.99,,,-99.99,,2013-08-02 06:33:00,
2013-08-02 02:43:00,80.0,74.0,29.97,SW,230,10.0,13.0,82,-99.99,,,-99.99,,2013-08-02 06:43:00,
2013-08-02 02:52:00,80.0,74.0,29.97,SW,230,10.0,13.0,82,-99.99,,,-99.99,,2013-08-02 06:52:00,
2013-08-02 03:00:00,80.0,74.0,29.96,WSW,240,9.0,13.0,83,-99.99,,,-99.99,,2013-08-02 07:00:00,
2013-08-02 03:33:00,80.0,74.0,29.96,WSW,240,9.0,13.0,83,-99.99,,,-99.99,,2013-08-02 07:33:00,
2013-08-02 03:44:00,80.0,74.0,29.96,WSW,240,9.0,13.0,83,-99.99,,,-99.99,,2013-08-02 07:44:00,
2013-08-02 03:53:00,80.0,74.0,29.96,WSW,240,9.0,13.0,83,-99.99,,,-99.99,,2013-08-02 07:53:00,
2013-08-02 04:00:00,78.0,75.0,29.96,WSW,250,5.0,5.0,90,-99.99,,,-99.99,,2013-08-02 08:00:00,
2013-08-02 04:33:00,78.0,75.0,29.96,WSW,250,5.0,5.0,90,-99.99,,,-99.99,,2013-08-02 08:33:00,
2013-08-02 04:43:00,78.0,75.0,29.96,WSW,250,5.0,5.0,90,-99.99,,,-99.99,,2013-08-02 08:43:00,
2013-08-02 04:53:00,78.0,75.0,29.96,WSW,250,5.0,5.0,90,-99.99,,,-99.99,,2013-08-02 08:53:00,
2013-08-02 05:00:00,78.0,75.0,29.96,SW,230,8.0,10.0,90,-99.99,,,-99.99,,2013-08-02 09:00:00,
2013-08-02 05:43:00,78.0,75.0,29.96,SW,230,8.0,10.0,90,-99.99,,,-99.99,,2013-08-02 09:43:00,
2013-08-02 05:52:00,78.0,75.0,29.96,SW,230,8.0,10.0,90,-99.99,,,-99.99,,2013-08-02 09:52:00,
2013-08-02 06:00:00,78.0,73.0,29.98,WSW,240,7.0,8.0,87,-99.99,,,-99.99,,2013-08-02 10:00:00,
2013-08-02 06:33:00,78.0,73.0,29.98,WSW,240,7.0,8.0,87,-99.99,,,-99.99,,2013-08-02 10:33:00,
2013-08-02 06:43:00,78.0,73.0,29.98,WSW,240,7.0,8.0,87,-99.99,,,-99.99,,2013-08-02 10:43:00,
2013-08-02 06:52:00,78.0,73.0,29.98,WSW,240,7.0,8.0,87,-99.99,,,-99.99,,2013-08-02 10:52:00,
2013-08-02 07:00:00,78.0,74.0,29.98,WSW,240,7.0,8.0,85,-99.99,,,-99.99,,2013-08-02 11:00:00,
2013-08-02 07:32:00,78.0,74.0,29.98,WSW,240,7.0,8.0,85,-99.99,,,-99.99,,2013-08-02 11:32:00,
2013-08-02 07:42:00,78.0,74.0,29.98,WSW,240,7.0,8.0,85,-99.99,,,-99.99,,2013-08-02 11:42:00,
2013-08-02 07:52:00,78.0,74.0,29.98,WSW,240,7.0,8.0,85,-99.99,,,-99.99,,2013-08-02 11:52:00,
2013-08-02 08:00:00,80.0,73.0,30.01,SW,230,9.0,13.0,81,-99.99,,,-99.99,,2013-08-02 12:00:00,
2013-08-02 08:32:00,80.0,73.0,30.01,SW,230,9.0,13.0,81,-99.99,,,-99.99,,2013-08-02 12:32:00,
2013-08-02 08:42:00,80.0,73.0,30.01,SW,230,9.0,13.0,81,-99.99,,,-99.99,,2013-08-02 12:42:00,
2013-08-02 08:52:00,80.0,73.0,30.01,SW,230,9.0,13.0,81,-99.99,,,-99.99,,2013-08-02 12:52:00,
2013-08-02 09:00:00,81.0,74.0,30.02,WSW,240,9.0,13.0,77,-99.99,,,-99.99,,2013-08-02 13:00:00,
2013-08-02 09:33:00,81.0,74.0,30.02,WSW,240,9.0,13.0,77,-99.99,,,-99.99,,2013-08-02 13:33:00,
2013-08-02 09:42:00,81.0,74.0,30.02,WSW,240,9.0,13.0,77,-99.99,,,-99.99,,2013-08-02 13:42:00,
2013-08-02 09:52:00,81.0,74.0,30.02,WSW,240,9.0,13.0,77,-99.99,,,-99.99,,2013-08-02 13:52:00,
2013-08-02 10:00:00,81.0,75.0,30.03,SW,220,14.0,16.0,80,-99.99,,,-99.99,,2013-08-02 14:00:00,
2013-08-02 10:32:00,81.0,75.0,30.03,SW,220,14.0,16.0,80,-99.99,,,-99.99,,2013-08-02 14:32:00,
2013-08-02 10:43:00,81.0,75.0,30.03,SW,220,14.0,16.0,80,-99.99,,,-99.99,,2013-08-02 14:43:00,
2013-08-02 10:52:00,81.0,75.0,30.03,SW,220,14.0,16.0,80,-99.99,,,-99.99,,2013-08-02 14:52:00,
2013-08-02 11:00:00,82.0,75.0,30.06,SSW,200,10.0,13.0,80,-99.99,,,-99.99,,2013-08-02 15:00:00,
2013-08-02 11:32:00,82.0,75.0,30.06,SSW,200,10.0,13.0,80,-99.99,,,-99.99,,2013-08-02 15:32:00,
2013-08-02 11:43:00,82.0,75.0,30.06,SSW,200,10.0,13.0,80,-99.99,,,-99.99,,2013-08-02 15:43:00,
2013-08-02 11:52:00,82.0,75.0,30.06,SSW,200,10.0,13.0,80,-99.99,,,-99.99,,2013-08-02 15:52:00,
2013-08-02 12:00:00,82.0,76.0,30.04,SSW,200,12.0,14.0,81,-99.99,,,-99.99,,2013-08-02 16:00:00,
2013-08-02 12:32:00,82.0,76.0,30.04,SSW,200,12.0,14.0,81,-99.99,,,-99.99,,2013-08-02 16:32:00,
2013-08-02 12:42:00,82.0,76.0,30.04,SSW,200,12.0,14.0,81,-99.99,,,-99.99,,2013-08-02 16:42:00,
2013-08-02 12:52:00,82.0,76.0,30.04,SSW,200,12.0,14.0,81,-99.99,,,-99.99,,2013-08-02 16:52:00,
2013-08-02 13:00:00,83.0,76.0,30.04,South,190,12.0,15.0,79,-99.99,,,-99.99,,2013-08-02 17:00:00,
2013-08-02 13:34:00,83.0,76.0,30.04,South,190,12.0,15.0,79,-99.99,,,-99.99,,2013-08-02 17:34:00,
2013-08-02 13:42:00,83.0,76.0,30.04,South,190,12.0,15.0,79,-99.99,,,-99.99,,2013-08-02 17:42:00,
2013-08-02 13:52:00,83.0,76.0,30.04,South,190,12.0,15.0,79,-99.99,,,-99.99,,2013-08-02 17:52:00,
2013-08-02 14:00:00,83.0,76.0,30.03,SSW,200,13.0,17.0,78,-99.99,,,-99.99,,2013-08-02 18:00:00,
2013-08-02 14:43:00,83.0,76.0,30.03,SSW,200,13.0,17.0,78,-99.99,,,-99.99,,2013-08-02 18:43:00,
2013-08-02 14:52:00,83.0,76.0,30.03,SSW,200,13.0,17.0,78,-99.99,,,-99.99,,2013-08-02 18:52:00,
2013-08-02 15:00:00,84.0,75.0,30.03,South,190,14.0,15.0,75,-99.99,,,-99.99,,2013-08-02 19:00:00,
2013-08-02 15:32:00,84.0,75.0,30.03,South,190,14.0,15.0,75,-99.99,,,-99.99,,2013-08-02 19:32:00,
2013-08-02 15:43:00,84.0,75.0,30.03,South,190,14.0,15.0,75,-99.99,,,-99.99,,2013-08-02 19:43:00,
2013-08-02 15:52:00,84.0,75.0,30.03,South,190,14.0,15.0,75,-99.99,,,-99.99,,2013-08-02 19:52:00,
2013-08-02 16:00:00,84.0,75.0,30.01,South,180,16.0,20.0,75,-99.99,,,-99.99,,2013-08-02 20:00:00,
2013-08-02 16:32:00,84.0,75.0,30.01,South,180,16.0,20.0,75,-99.99,,,-99.99,,2013-08-02 20:32:00,
2013-08-02 16:43:00,84.0,75.0,30.01,South,180,16.0,20.0,75,-99.99,,,-99.99,,2013-08-02 20:43:00,
2013-08-02 16:52:00,84.0,75.0,30.01,South,180,16.0,20.0,75,-99.99,,,-99.99,,2013-08-02 20:52:00,
2013-08-02 17:00:00,82.0,76.0,30.02,South,180,17.0,20.0,81,-99.99,,,-99.99,,2013-08-02 21:00:00,
2013-08-02 17:32:00,82.0,76.0,30.02,South,180,17.0,20.0,81,-99.99,,,-99.99,,2013-08-02 21:32:00,
2013-08-02 17:43:00,82.0,76.0,30.02,South,180,17.0,20.0,81,-99.99,,,-99.99,,2013-08-02 21:43:00,
2013-08-02 17:52:00,82.0,76.0,30.02,South,180,17.0,20.0,81,-99.99,,,-99.99,,2013-08-02 21:52:00,
2013-08-02 18:00:00,82.0,74.0,30.02,South,190,16.0,20.0,77,-99.99,,,-99.99,,2013-08-02 22:00:00,
2013-08-02 18:32:00,82.0,74.0,30.02,South,190,16.0,20.0,77,-99.99,,,-99.99,,2013-08-02 22:32:00,
2013-08-02 18:42:00,82.0,74.0,30.02,South,190,16.0,20.0,77,-99.99,,,-99.99,,2013-08-02 22:42:00,
2013-08-02 18:52:00,82.0,74.0,30.02,South,190,16.0,20.0,77,-99.99,,,-99.99,,2013-08-02 22:52:00,
2013-08-02 19:00:00,82.0,75.0,30.03,South,180,17.0,21.0,79,-99.99,,,-99.99,,2013-08-02 23:00:00,
2013-08-02 19:32:00,82.0,75.0,30.03,South,180,17.0,21.0,79,-99.99,,,-99.99,,2013-08-02 23:32:00,
2013-08-02 19:43:00,82.0,75.0,30.03,South,180,17.0,21.0,79,-99.99,,,-99.99,,2013-08-02 23:43:00,
2013-08-02 19:53:00,82.0,75.0,30.03,South,180,17.0,21.0,79,-99.99,,,-99.99,,2013-08-02 23:53:00,
2013-08-02 20:00:00,82.0,75.0,30.04,South,180,15.0,17.0,77,-99.99,,,-99.99,,2013-08-03 00:00:00,
2013-08-02 20:32:00,82.0,75.0,30.04,South,180,15.0,17.0,77,-99.99,,,-99.99,,2013-08-03 00:32:00,
2013-08-02 20:43:00,82.0,75.0,30.04,South,180,15.0,17.0,77,-99.99,,,-99.99,,2013-08-03 00:43:00,
2013-08-02 20:52:00,82.0,75.0,30.04,South,180,15.0,17.0,77,-99.99,,,-99.99,,2013-08-03 00:52:00,
2013-08-02 21:00:00,82.0,76.0,30.05,South,180,14.0,17.0,81,-99.99,,,-99.99,,2013-08-03 01:00:00,
2013-08-02 21:32:00,82.0,76.0,30.05,South,180,14.0,17.0,81,-99.99,,,-99.99,,2013-08-03 01:32:00,
2013-08-02 21:42:00,82.0,76.0,30.05,South,180,14.0,17.0,81,-99.99,,,-99.99,,2013-08-03 01:42:00,
2013-08-02 21:52:00,82.0,76.0,30.05,South,180,14.0,17.0,81,-99.99,,,-99.99,,2013-08-03 01:52:00,
2013-08-02 22:00:00,82.0,76.0,30.05,South,180,16.0,18.0,82,-99.99,,,-99.99,,2013-08-03 02:00:00,
2013-08-02 22:32:00,82.0,76.0,30.05,South,180,16.0,18.0,82,-99.99,,,-99.99,,2013-08-03 02:32:00,
2013-08-02 22:43:00,82.0,76.0,30.05,South,180,16.0,18.0,82,-99.99,,,-99.99,,2013-08-03 02:43:00,
2013-08-02 22:52:00,82.0,76.0,30.05,South,180,16.0,18.0,82,-99.99,,,-99.99,,2013-08-03 02:52:00,
2013-08-02 23:00:00,82.0,76.0,30.06,South,180,17.0,21.0,83,-99.99,,,-99.99,,2013-08-03 03:00:00,
2013-08-02 23:32:00,82.0,76.0,30.06,South,180,17.0,21.0,83,-99.99,,,-99.99,,2013-08-03 03:32:00,
2013-08-02 23:43:00,82.0,76.0,30.06,South,180,17.0,21.0,83,-99.99,,,-99.99,,2013-08-03 03:43:00,
2013-08-02 23:53:00,82.0,76.0,30.06,South,180,17.0,21.0,83,-99.99,,,-99.99,,2013-08-03 03:53:00,